[[{"header":{"parameterUnit":"m.s-1","parameterCategory":1,"la1":30.2991,"la2":30.254,"lo1":-89.0895,"lo2":-89.0444,"dy":0.0017,"dx":0.0017,"nx":28,"ny":28,"refTime":"2023-10-14T21:00:00:Z","depth":0,"parameterNumber":2,"parameterNumberName":"U-component_of_WINDS"},"data":[0,0,0,0,0,0,0,0,0,0,0,0,0,0,0,0,0,0,0,0,0,0,0,0,0,0,0,0,0,0,0,0,0,0,0,0,0,0,0,0,0,0,0,0,0,0,0,0,0,0,0,0,0,0,0,0,0,0,2.9499,2.9499,0,2.9514,2.9514,2.9515,2.9463,2.9462,2.946,2.9459,2.9473,2.9474,2.9476,0,0,0,0,0,0,0,0,0,0,0,0,0,2.9424,2.9426,2.9499,2.9499,2.9499,2.9514,2.9514,2.9515,2.9463,2.9461,2.946,2.9458,2.9472,2.9474,2.9476,0,0,0,0,0,0,0,0,0,0,0,0,0,2.945,2.9426,2.9499,2.9475,2.9474,2.9514,2.9514,2.9515,2.9464,2.9461,2.9459,2.9457,2.9471,2.9474,2.9477,2.954,0,0,2.9485,2.9486,0,0,0,0,0,0,0,0,2.9448,2.9453,2.9479,2.9477,2.9475,2.9484,2.9493,2.9523,2.9464,2.9467,2.9459,2.9456,2.9478,2.948,2.9488,2.9541,2.9541,2.9485,2.9487,2.9488,2.9489,0,0,0,0,0,0,0,2.9447,2.9452,2.9505,2.9479,2.9477,2.9464,2.9465,2.9499,2.9486,2.9467,2.9463,2.9466,2.9477,2.9486,2.9488,2.9541,2.9485,2.9487,2.9489,2.949,2.9648,2.965,0,0,0,0,0,0,2.9448,2.9451,2.9504,2.9505,2.9456,2.9467,2.9468,2.9484,2.9485,2.9483,2.9468,2.9463,2.9482,2.9485,2.9488,2.9563,2.9488,2.949,2.9492,2.9645,2.9648,2.9651,0,0,0,0,0,0,2.9447,2.9453,2.9504,2.9477,2.9482,2.9471,2.9489,2.9485,2.9494,2.9486,2.9483,2.9479,2.948,2.9485,2.9528,2.9563,2.9492,2.9494,2.9642,2.9646,2.965,2.9714,0,0,0,0,0,0,2.9445,2.9453,2.9477,2.9478,2.9484,2.9543,2.9491,2.9487,2.9499,2.9494,2.9496,2.9494,2.9479,2.9524,2.9531,2.9566,2.9496,2.9639,2.9644,2.9649,2.9708,2.9719,2.9728,0,0,0,0,0,2.9442,2.9494,2.9479,2.9485,2.9514,2.9545,2.9549,2.9531,2.9502,2.9526,2.9521,2.9494,2.9559,2.9529,2.9536,2.9572,2.9637,2.9643,2.9648,2.9704,2.9717,2.9728,0,0,0,0,0,0,2.9496,2.9493,2.9477,2.953,2.9538,2.9537,2.9566,2.9545,2.9562,2.9555,2.9532,2.9533,2.9581,2.9581,2.9548,2.9634,2.9593,2.96,2.9633,2.9645,2.9655,2.9654,2.9499,0,0,0,0,0,2.9514,2.9541,2.9537,2.9584,2.9589,2.9578,2.959,2.9576,2.9584,2.9587,2.9585,2.9593,2.9615,2.963,2.965,2.9708,2.9708,2.9737,2.9747,2.9755,2.9762,2.9794,2.9807,2.967,2.967,2.967,0,0,2.9552,2.9554,2.9571,2.9595,2.96,2.9628,2.9581,2.9611,2.9632,2.9591,2.9632,2.9632,2.9639,2.9691,2.9713,2.9692,2.98,2.9763,2.9769,2.9771,2.9801,2.9814,2.9825,2.9674,2.9673,2.9673,0,0,2.9634,2.9638,2.9679,2.9685,2.9694,2.9686,2.9696,2.9698,2.9696,2.9738,2.9708,2.9732,2.9771,2.9778,2.9786,2.9874,2.985,2.9881,2.9934,2.9965,2.9976,2.9985,3.0017,3.0029,2.9888,2.9888,2.9888,0,2.9679,2.9721,2.9702,2.9736,2.9747,2.9713,2.9754,2.9761,2.9776,2.9785,2.9761,2.981,2.9812,2.9866,2.9888,2.9896,2.9906,2.988,2.9976,2.9985,2.9994,3.0024,3.0036,2.9892,2.9891,2.9891,2.9891,0,2.9776,2.9805,2.9837,2.9853,2.9869,2.9906,2.9893,2.991,2.9896,2.989,2.9933,2.9936,2.9956,2.9968,2.9953,3.002,3.0006,2.998,2.9937,3.0011,3.0039,3.005,2.9897,2.9896,2.9895,2.9894,0,0,2.9891,2.9899,2.991,2.9918,2.9927,2.9948,2.9985,3.0006,3.0022,3.0033,3.0063,3.0098,3.0074,3.0084,3.007,3.0097,3.0168,3.0067,3.0067,3.0086,3.0242,3.0262,3.0276,3.0152,3.0155,3.0156,3.0242,0,2.9972,3.0035,3.0021,3.0082,3.0109,3.0079,3.011,3.0119,3.0116,3.0138,3.0134,3.0159,3.0125,3.0131,3.0158,3.0154,3.0199,3.0148,3.018,3.0181,3.0179,3.029,3.0311,3.0391,3.0253,3.0254,3.0256,0,3.0075,3.0093,3.0158,3.0164,3.0174,3.0203,3.0222,3.0244,3.0253,3.0249,3.0262,3.0243,3.0279,3.0237,3.0286,3.0252,3.0264,3.0265,3.0268,3.0269,3.0223,3.0295,3.0417,3.0429,3.0273,3.0271,3.027,0,3.0153,3.0193,3.0237,3.0245,3.0252,3.0273,3.0277,3.0285,3.0299,3.0316,3.0325,3.0345,3.0356,3.0372,3.036,3.033,3.0412,3.0368,3.0409,3.0409,3.0426,3.0426,3.0552,3.0435,3.0435,3.0435,3.0435,0,3.0246,3.0287,3.0273,3.03,3.0345,3.0328,3.0374,3.0374,3.0382,3.0408,3.0383,3.0409,3.039,3.0414,3.0405,3.0448,3.0453,3.045,3.0447,3.0452,3.0453,3.046,3.0454,3.0438,3.0437,3.0437,3.0436,0,3.0339,3.0332,3.0378,3.0383,3.0385,3.0418,3.0421,3.0447,3.0442,3.0477,3.0484,3.0477,3.0504,3.0494,3.0522,3.0516,3.0571,3.056,3.0568,3.0565,3.0606,3.0603,3.0741,3.0758,3.0631,3.0632,3.0633,0,3.0399,3.043,3.0438,3.0455,3.0461,3.0488,3.0503,3.0489,3.0505,3.052,3.0544,3.0569,3.0589,3.0634,3.0631,3.0653,3.0643,3.069,3.0646,3.0651,3.0644,3.0642,3.0645,3.0699,3.07,3.0701,3.0702,0,3.0505,3.05,3.0523,3.0545,3.0564,3.0581,3.0595,3.061,3.0596,3.0616,3.0645,3.066,3.0691,3.0716,3.0737,3.074,3.0719,3.0717,3.0727,3.0732,3.0736,3.0735,3.0592,3.0713,3.0712,3.0711,3.0711,3.071,3.0583,3.061,3.0621,3.0647,3.0657,3.0672,3.0696,3.0696,3.072,3.0744,3.0734,3.0767,3.0777,3.0802,3.0809,3.0835,3.0816,3.0832,3.0835,3.0839,3.0845,3.0732,3.0838,3.0838,3.0838,3.0838,3.0837,0,3.0688,3.0694,3.0719,3.0741,3.0762,3.0742,3.0757,3.0776,3.0806,3.0818,3.0839,3.0872,3.0897,3.0898,3.0921,3.0942,3.0933,3.0948,3.0946,3.0948,3.086,3.0848,3.0955,3.0955,3.0955,3.0955,3.0955,3.0955,3.0745,3.079,3.0787,3.0836,3.0842,3.0875,3.0885,3.0899,3.0908,3.0947,3.0969,3.0969,3.0977,3.1001,3.1024,3.1023,3.1033,3.1052,3.1048,3.0966,3.0954,3.0943,3.0932,3.1055,3.1055,3.1134,3.1135,3.1135]},{"header":{"parameterUnit":"m.s-1","parameterCategory":1,"la1":30.2991,"la2":30.254,"lo1":-89.0895,"lo2":-89.0444,"dy":0.0017,"dx":0.0017,"nx":28,"ny":28,"refTime":"2023-10-14T21:00:00:Z","depth":0,"parameterNumber":3,"parameterNumberName":"V-component_of_WINDS"},"data":[0,0,0,0,0,0,0,0,0,0,0,0,0,0,0,0,0,0,0,0,0,0,0,0,0,0,0,0,0,0,0,0,0,0,0,0,0,0,0,0,0,0,0,0,0,0,0,0,0,0,0,0,0,0,0,0,0,0,-5.6367,-5.6368,0,-5.6484,-5.6485,-5.6486,-5.6426,-5.6423,-5.642,-5.6417,-5.6532,-5.6538,-5.6544,0,0,0,0,0,0,0,0,0,0,0,0,0,-5.609,-5.6096,-5.6367,-5.6369,-5.637,-5.6483,-5.6485,-5.6487,-5.6426,-5.6422,-5.6419,-5.6415,-5.653,-5.6537,-5.6545,0,0,0,0,0,0,0,0,0,0,0,0,0,-5.6209,-5.6098,-5.6367,-5.6354,-5.6354,-5.6483,-5.6485,-5.6487,-5.6427,-5.6422,-5.6418,-5.6413,-5.6528,-5.6537,-5.6546,-5.6694,0,0,-5.6573,-5.6577,0,0,0,0,0,0,0,0,-5.6202,-5.6219,-5.6354,-5.6355,-5.6355,-5.6435,-5.643,-5.6556,-5.6428,-5.6399,-5.6417,-5.6411,-5.6504,-5.6514,-5.6546,-5.6699,-5.6704,-5.6574,-5.6579,-5.6583,-5.6586,0,0,0,0,0,0,0,-5.6194,-5.6214,-5.6413,-5.6356,-5.6357,-5.6341,-5.6353,-5.6453,-5.6476,-5.6401,-5.6397,-5.6412,-5.6503,-5.6538,-5.6548,-5.6706,-5.6573,-5.6581,-5.6587,-5.659,-5.6987,-5.6992,0,0,0,0,0,0,-5.6187,-5.6207,-5.6409,-5.6417,-5.6266,-5.635,-5.6363,-5.6414,-5.6475,-5.6479,-5.6416,-5.6409,-5.6525,-5.6538,-5.6552,-5.6731,-5.6583,-5.6591,-5.6596,-5.6982,-5.6988,-5.6994,0,0,0,0,0,0,-5.6181,-5.6206,-5.6405,-5.6311,-5.6335,-5.636,-5.6418,-5.6419,-5.6454,-5.6486,-5.6489,-5.6448,-5.6522,-5.654,-5.666,-5.6734,-5.6595,-5.6603,-5.6976,-5.6984,-5.6991,-5.7089,0,0,0,0,0,0,-5.6174,-5.6204,-5.6261,-5.6313,-5.634,-5.6511,-5.6422,-5.6425,-5.647,-5.6462,-5.6516,-5.6521,-5.6519,-5.6647,-5.6669,-5.6744,-5.661,-5.6969,-5.698,-5.6989,-5.7079,-5.7099,-5.7116,0,0,0,0,0,-5.6164,-5.6283,-5.6264,-5.6289,-5.6412,-5.6515,-5.6531,-5.6528,-5.6476,-5.6533,-5.6554,-5.6519,-5.6722,-5.6659,-5.6683,-5.6763,-5.6965,-5.6977,-5.6988,-5.7071,-5.7095,-5.7115,0,0,0,0,0,0,-5.6237,-5.6289,-5.6269,-5.6408,-5.6458,-5.6505,-5.6577,-5.6554,-5.6618,-5.6608,-5.66,-5.6613,-5.6738,-5.6762,-5.6691,-5.691,-5.6835,-5.6852,-5.689,-5.6913,-5.6931,-5.6923,-5.6618,0,0,0,0,0,-5.627,-5.635,-5.639,-5.6509,-5.6535,-5.6552,-5.6597,-5.6591,-5.6641,-5.6662,-5.6691,-5.6741,-5.6816,-5.6866,-5.6936,-5.7082,-5.7093,-5.7148,-5.7167,-5.7182,-5.7197,-5.7277,-5.7302,-5.7032,-5.7032,-5.7032,0,0,-5.6337,-5.6376,-5.6426,-5.6525,-5.6563,-5.6646,-5.657,-5.6661,-5.6722,-5.6675,-5.6791,-5.6814,-5.6869,-5.7003,-5.7064,-5.7027,-5.7274,-5.7197,-5.7208,-5.7215,-5.7292,-5.7317,-5.734,-5.704,-5.7039,-5.7038,0,0,-5.6503,-5.654,-5.6644,-5.6684,-5.6743,-5.6754,-5.6779,-5.683,-5.6844,-5.6961,-5.6928,-5.7,-5.7129,-5.717,-5.7208,-5.7392,-5.7363,-5.7415,-5.7512,-5.759,-5.7611,-5.763,-5.7697,-5.7721,-5.743,-5.743,-5.743,0,-5.658,-5.6704,-5.67,-5.6794,-5.6839,-5.6802,-5.6907,-5.6945,-5.7024,-5.7056,-5.7014,-5.7177,-5.7211,-5.7355,-5.74,-5.7431,-5.746,-5.7409,-5.7609,-5.7627,-5.7645,-5.7709,-5.7734,-5.7436,-5.7435,-5.7435,-5.7434,0,-5.6796,-5.6883,-5.696,-5.7039,-5.7092,-5.7191,-5.7201,-5.7255,-5.7245,-5.726,-5.7379,-5.7419,-5.7499,-5.7532,-5.7521,-5.7675,-5.7651,-5.7609,-5.7534,-5.7677,-5.7737,-5.7761,-5.7445,-5.7443,-5.7441,-5.7439,0,0,-5.7011,-5.7088,-5.7116,-5.7152,-5.7215,-5.7282,-5.7379,-5.7458,-5.7506,-5.7561,-5.7643,-5.7754,-5.7717,-5.776,-5.7754,-5.7823,-5.7968,-5.7773,-5.7774,-5.7809,-5.8141,-5.8172,-5.8201,-5.7948,-5.7953,-5.7956,-5.8136,0,-5.7182,-5.7354,-5.7354,-5.7513,-5.7594,-5.756,-5.7645,-5.7693,-5.771,-5.7781,-5.7798,-5.7878,-5.7822,-5.7848,-5.7914,-5.7936,-5.8034,-5.7923,-5.8024,-5.8028,-5.8013,-5.8232,-5.8265,-5.8433,-5.8159,-5.8163,-5.8166,0,-5.7405,-5.747,-5.7638,-5.7691,-5.7725,-5.7801,-5.7875,-5.7942,-5.7996,-5.8003,-5.8053,-5.8037,-5.8136,-5.8058,-5.8195,-5.8119,-5.816,-5.8177,-5.8184,-5.8194,-5.8107,-5.8249,-5.8486,-5.8512,-5.8203,-5.82,-5.8197,0,-5.7546,-5.7676,-5.7793,-5.7825,-5.7889,-5.7945,-5.7974,-5.8023,-5.8071,-5.8134,-5.8166,-5.8239,-5.828,-5.8337,-5.8341,-5.8284,-5.848,-5.8402,-5.8489,-5.8489,-5.8532,-5.853,-5.8781,-5.8557,-5.8557,-5.8557,-5.8556,0,-5.7738,-5.7842,-5.7858,-5.7931,-5.8047,-5.8045,-5.8159,-5.8183,-5.8228,-5.8304,-5.8279,-5.8351,-5.8351,-5.8425,-5.8428,-5.8542,-5.856,-5.8569,-5.8569,-5.8572,-5.8571,-5.8599,-5.8588,-5.8563,-5.8562,-5.856,-5.8559,0,-5.7916,-5.7931,-5.8057,-5.8109,-5.8124,-5.8207,-5.8251,-5.832,-5.8335,-5.8432,-5.8454,-5.8478,-5.8563,-5.8573,-5.8671,-5.8674,-5.8811,-5.8798,-5.8794,-5.8792,-5.888,-5.8872,-5.9159,-5.9197,-5.8948,-5.895,-5.8952,0,-5.8038,-5.8118,-5.8179,-5.8229,-5.8262,-5.8342,-5.8392,-5.8393,-5.8446,-5.8514,-5.8575,-5.8658,-5.8725,-5.8863,-5.8888,-5.8964,-5.8953,-5.9048,-5.8964,-5.8965,-5.8956,-5.8952,-5.896,-5.9065,-5.9067,-5.907,-5.9071,0,-5.8254,-5.8258,-5.8331,-5.8408,-5.8468,-5.8528,-5.8584,-5.8626,-5.8635,-5.8695,-5.8783,-5.8835,-5.8937,-5.902,-5.9095,-5.9124,-5.91,-5.9098,-5.9122,-5.9127,-5.9122,-5.9127,-5.884,-5.9091,-5.9089,-5.9088,-5.9087,-5.9086,-5.8408,-5.8478,-5.8533,-5.8616,-5.8659,-5.8712,-5.878,-5.8805,-5.8878,-5.8963,-5.8959,-5.9056,-5.9108,-5.9207,-5.9242,-5.9317,-5.9286,-5.9321,-5.933,-5.9339,-5.9349,-5.9109,-5.9331,-5.933,-5.933,-5.9329,-5.9329,0,-5.8624,-5.8658,-5.8734,-5.8815,-5.888,-5.8853,-5.8914,-5.897,-5.9057,-5.9108,-5.9175,-5.9277,-5.9358,-5.939,-5.9469,-5.9524,-5.9515,-5.9544,-5.9541,-5.9548,-5.9371,-5.9343,-5.9551,-5.9551,-5.955,-5.955,-5.955,-5.955,-5.8744,-5.8861,-5.8872,-5.9011,-5.9043,-5.914,-5.9178,-5.9227,-5.9268,-5.9384,-5.9452,-5.9473,-5.9517,-5.9599,-5.9672,-5.968,-5.971,-5.9746,-5.9748,-5.9583,-5.956,-5.9539,-5.9513,-5.9752,-5.9752,-5.9919,-5.992,-5.9922]}]]